Location: Paimpol
(48.7798°N, 3.0488°W)
Time: 23:45:34
(UTC+02:00)

Tianhe-1 - Visible Passes

Search period start: 24 June 2021 00:00
Search period end: 04 July 2021 00:00
Orbit: 375 x 385 km, 41.5° (Epoch: 24 June)

Date Brightness Start Highest point End Pass type
(mag) Time Alt. Az. Time Alt. Az. Time Alt. Az.
24 Jun 3.6 04:00:20 11° SE 04:00:20 11° SE 04:00:36 10° SE visible
25 Jun 2.7 04:34:02 17° S 04:34:42 18° S 04:36:58 10° ESE visible
26 Jun 3.7 03:35:38 10° SE 03:35:38 10° SE 03:35:43 10° SE visible
26 Jun 2.5 05:07:45 11° SW 05:09:58 21° S 05:12:28 10° SE visible
27 Jun 2.6 04:09:24 20° SSE 04:09:24 20° SSE 04:11:28 10° ESE visible
28 Jun 2.5 04:43:18 18° SSW 04:44:16 21° S 04:46:42 10° SE visible
29 Jun 3.4 03:45:17 13° SE 03:45:17 13° SE 03:45:47 10° SE visible
29 Jun 2.9 05:17:33 10° SW 05:19:26 15° SSW 05:21:19 10° SSE visible
30 Jun 3.1 04:19:46 15° SSE 04:19:46 15° SSE 04:20:44 10° SE visible
